Regional Weather Roundup
Issued by NWS

Home | Current Version | Previous Version | Graphics & Text | Print | Product List | Glossary On
Versions: 1 2 3 4 5 6 7 8 9 10 11 12 13 14 15 16 17 18 19 20 21 22 23 24 25 26 27 28 29 30 31 32 33 34 35 36 37 38 39 40 41 42 43 44 45 46 47 48 49 50
000
ASUS45 KCYS 200810
RWRWY

WYOMING REGIONAL WEATHER ROUNDUP
NATIONAL WEATHER SERVICE CHEYENNE WY
100 AM MST THU NOV 20 2014

NOTE:  "FAIR" INDICATES FEW OR NO CLOUDS BELOW 12,000 FEET
WITH NO SIGNIFICANT WEATHER AND/OR OBSTRUCTIONS TO VISIBILITY.

WYZ001-200900-
YELLOWSTONE NATIONAL PARK

CITY           SKY/WX    TMP DP  RH WIND       PRES   REMARKS
LK YELLOWSTONE   N/A     16  13  88 CALM      30.10S
W YELLOWSTONE  NOT AVBL

$$
WYZ002>013-054>058-071-098>099-200900-
NORTHERN WYOMING

CITY           SKY/WX    TMP DP  RH WIND       PRES   REMARKS
JACKSON        NOT AVBL
CODY           PTCLDY    18  16  93 N5        29.94F WCI  11
GREYBULL       MOCLDY     1  -3  83 CALM      30.03F
WORLAND        PTCLDY     3   0  87 S10       30.01F WCI -12
SHERIDAN       CLEAR     16  12  84 CALM      29.94F
BUFFALO        PTCLDY    26  11  52 S5        29.94F WCI  20
GILLETTE       CLEAR     10   7  87 CALM      29.95F
HULETT         FAIR      16  12  86 SW7       29.97F WCI   6
NEWCASTLE        N/A    N/A N/A N/A MISG        N/A

$$
WYZ014>020-022>026-101>103-200900-
CENTRAL WYOMING

CITY           SKY/WX    TMP DP  RH WIND       PRES   REMARKS
BIG PINEY      MOCLDY    17  11  77 E6        30.07S WCI   9
PINEDALE       CLOUDY    21  16  79 W3        30.08S
DUBOIS         FAIR      27  12  54 NW18      30.00F WCI  13
LANDER         CLEAR     19  13  77 W9        30.00S WCI   8
RIVERTON       PTCLDY    12   9  87 NW7       30.00F WCI   1
CASPER         PTCLDY    23  14  68 SW12      29.98F WCI  12
DOUGLAS        PTCLDY    13   9  84 CALM      30.00F

$$
WYZ021-027>030-104>119-200900-
SOUTHERN WYOMING

CITY           SKY/WX    TMP DP  RH WIND       PRES   REMARKS
EVANSTON       PTCLDY    28  13  53 SW8       30.09S WCI  20
KEMMERER       MOSUNNY   27  14  59 W6        30.08S WCI  20
FORT BRIDGER   PTSUNNY   32  13  47 W9        30.10F WCI  24
ROCK SPRINGS   PTCLDY    31  14  49 SW10      30.07S WCI  22
DIXON          CLOUDY    25  16  68 SE7       30.12F WCI  17
RAWLINS        CLEAR     29  12  49 SW10      30.04F WCI  20
SARATOGA       CLOUDY    27  16  63 SE7       30.07S WCI  19
LARAMIE        PTCLDY    29   8  41 W17       30.00F WCI  17
CHEYENNE       PTCLDY    24  12  60 N3        29.99S
TORRINGTON     CLEAR     17  13  84 NW3       30.01F
PINE BLUFFS    FAIR      18  12  79 SW3       30.01S

$$


USA.gov is the U.S. government's official web portal to all federal, state and local government web resources and services.